Location: Cabri�res
(43.7840°N, 5.4986°E)
Time: 01:55:13
(UTC+00:00)

SAR-Lupe-2 - Pass Details

Date: 09 April 2020
Orbit: 481 x 485 km, 98.1° (Epoch: 20 May)

Event Time Altitude Azimuth Distance (km) Brightness Sun altitude
Rises 20:16:29 0° 15° (NNE) 2,553 7.5 -20.9°
Reaches altitude 10° 20:18:34 10° 17° (NNE) 1,668 6.5 -21.2°
Enters shadow 20:21:21 51° 33° (NNE) 617 4.0 -21.6°
